Weather History for KIDA - April, 2014

Change the Weather History Date:

Wednesday, April 23, 2014

  Actual Average Record
Temperature  
Mean Temperature 42 °F 46 °F  
Max Temperature 52 °F 60 °F 86 °F (2012)
Min Temperature 32 °F 33 °F 13 °F (1968)
Degree Days  
Heating Degree Days 23 18  
Month to date heating degree days 450 488  
Since 1 July heating degree days 6759 7192  
Cooling Degree Days 0 0  
Month to date cooling degree days 0 0  
Year to date cooling degree days 0 0  
Moisture  
Dew Point 27 °F    
Average Humidity 59    
Maximum Humidity 89    
Minimum Humidity 29    
Precipitation  
Precipitation T in 0.04 in 0.31 in (2007)
Month to date precipitation 0.40 0.80  
Year to date precipitation 2.69 3.01  
Sea Level Pressure  
Sea Level Pressure 29.88 in    
Wind  
Wind Speed 19 mph (SSW)    
Max Wind Speed 31 mph    
Max Gust Speed 44 mph    
Visibility 9 miles    
Events Snow    
T = Trace of Precipitation, MM = Missing Value Source: NWS Daily Summary

Daily Weather History Graph

Daily Weather History Graph

Search for Another Location

Airport or City:

Trip Planner

Search our weather history database for the weather conditions in past years. The results will help you decide how hot, cold, wet, or windy it might be!

Date:

Astronomy

Apr. 23, 2014 Rise Set
Actual Time 6:32 AM MDT 8:21 PM MDT
Civil Twilight 6:02 AM MDT 8:51 PM MDT
Nautical Twilight 5:25 AM MDT 9:29 PM MDT
Astronomical Twilight 4:44 AM MDT 10:09 PM MDT
Moon 3:18 AM MDT (4/23) 2:23 PM MDT (4/23)
Length of Visible Light 14h 49m
Length of Day
13h 48m
Waning Crescent, 34% of the Moon is Illuminated
Apr 23
Waning Crescent
Apr 29
New
May 6
First Quarter
May 14
Full
May 21
Last Quarter

Hourly Weather History & Observations

Time (MDT) Temp. Windchill Dew Point Humidity Pressure Visibility Wind Dir Wind Speed Gust Speed Precip Events Conditions
12:53 AM 39.0 °F 29.0 °F 36.0 °F 89% 29.68 in 10.0 mi South 20.7 mph 27.6 mph N/A   Overcast
1:50 AM 39.2 °F 28.5 °F 33.8 °F 81% 29.75 in 10.0 mi SSW 24.2 mph 32.2 mph N/A   Overcast
1:53 AM 39.0 °F 28.3 °F 34.0 °F 82% 29.70 in 10.0 mi SSW 24.2 mph 32.2 mph N/A   Overcast
2:53 AM 37.0 °F 25.1 °F 32.0 °F 82% 29.71 in 10.0 mi SSW 26.5 mph 34.5 mph N/A   Overcast
3:04 AM 37.0 °F 25.4 °F 32.0 °F 82% 29.76 in 10.0 mi SSW 25.3 mph 33.4 mph N/A   Overcast
3:53 AM 35.1 °F 23.8 °F 32.0 °F 89% 29.74 in 9.0 mi SW 20.7 mph 33.4 mph 0.00 in   Overcast
4:11 AM 35.1 °F 23.5 °F 30.9 °F 85% 29.78 in 10.0 mi SW 21.9 mph 34.5 mph N/A   Overcast
4:53 AM 35.1 °F 23.0 °F 30.0 °F 82% 29.80 in 10.0 mi SSW 24.2 mph 34.5 mph N/A   Overcast
5:53 AM 34.0 °F 22.4 °F 28.9 °F 82% 29.84 in 10.0 mi SW 20.7 mph 26.5 mph N/A   Overcast
6:40 AM 33.1 °F 22.6 °F 28.9 °F 85% 29.86 in 10.0 mi SSW 16.1 mph - N/A   Overcast
6:53 AM 33.1 °F 21.9 °F 28.9 °F 85% 29.89 in 10.0 mi SSW 18.4 mph - N/A   Overcast
6:59 AM 33.1 °F 21.9 °F 28.9 °F 85% 29.87 in 5.0 mi SSW 18.4 mph 26.5 mph 0.00 in Snow Light Snow
7:25 AM 32.0 °F 20.8 °F 28.9 °F 88% 29.88 in 5.0 mi SSW 17.3 mph - 0.00 in   Overcast
7:29 AM 32.0 °F 21.2 °F 28.9 °F 88% 29.88 in 5.0 mi SSW 16.1 mph - 0.00 in   Overcast
7:53 AM 33.1 °F 23.0 °F 28.9 °F 85% 29.93 in 7.0 mi SSW 15.0 mph - 0.00 in   Overcast
8:53 AM 34.0 °F 23.8 °F 28.9 °F 82% 29.96 in 10.0 mi SSW 16.1 mph - 0.00 in   Mostly Cloudy
9:42 AM 37.9 °F 28.9 °F 30.0 °F 73% 29.93 in 10.0 mi SSW 16.1 mph - N/A   Scattered Clouds
9:53 AM 39.0 °F 30.6 °F 30.0 °F 70% 29.95 in 10.0 mi SSW 15.0 mph - N/A   Scattered Clouds
11:53 AM 44.1 °F 37.1 °F 24.1 °F 45% 29.96 in 10.0 mi SW 15.0 mph 24.2 mph N/A   Mostly Cloudy
12:34 PM 46.0 °F 39.0 °F 24.1 °F 42% 29.95 in 10.0 mi SSW 17.3 mph 21.9 mph N/A   Mostly Cloudy
12:53 PM 46.0 °F 39.3 °F 23.0 °F 40% 29.94 in 10.0 mi SSW 16.1 mph 23.0 mph N/A   Mostly Cloudy
2:53 PM 48.0 °F - 19.9 °F 33% 29.93 in 10.0 mi SSW 19.6 mph 25.3 mph N/A   Mostly Cloudy
3:53 PM 46.9 °F - 23.0 °F 39% 29.94 in 10.0 mi West 23.0 mph 35.7 mph N/A   Overcast
4:53 PM 50.0 °F - 21.0 °F 32% 29.92 in 10.0 mi SW 24.2 mph 29.9 mph 0.00 in   Mostly Cloudy
5:53 PM 50.0 °F - 19.0 °F 29% 29.93 in 10.0 mi WSW 31.1 mph 36.8 mph N/A   Mostly Cloudy
6:53 PM 48.9 °F - 19.0 °F 31% 29.95 in 10.0 mi SW 27.6 mph 33.4 mph N/A   Mostly Cloudy
7:53 PM 46.9 °F - 19.9 °F 34% 29.96 in 10.0 mi SW 21.9 mph 34.5 mph N/A   Clear
8:53 PM 44.1 °F 35.9 °F 21.9 °F 42% 29.99 in 10.0 mi SW 19.6 mph - N/A   Clear
9:53 PM 42.1 °F 34.2 °F 24.1 °F 49% 30.01 in 10.0 mi SSW 16.1 mph - N/A   Clear
10:53 PM 42.1 °F 34.9 °F 28.0 °F 58% 30.01 in 10.0 mi South 13.8 mph - N/A   Clear
11:53 PM 39.9 °F 31.4 °F 27.0 °F 60% 30.01 in 10.0 mi SSW 16.1 mph - N/A   Clear